Theta_e
329 328 327 327 327 327 326 325 324 324 324 326 326 326 326 327 328 329 330 329 329 329 328 328 329 329 330 331 330 330 330 329 328 327 326 325 323 324 324 323 322 323
331 330 329 328 327 327 327 325 324 324 324 325 326 326 326 327 328 330 329 329 329 329 329 329 329 330 330 330 330 330 328 328 327 330 326 324 323 324 324 323 323 322
331 330 330 328 327 327 327 326 325 325 325 325 325 326 327 328 329 329 329 329 328 329 329 329 329 329 330 329 329 328 328 327 327 328 327 326 323 324 323 324 322 322
330 331 330 328 326 326 326 326 325 325 325 324 325 327 328 328 327 327 328 331 328 328 328 328 328 328 329 329 328 327 327 327 328 327 326 324 324 325 324 324 323 322
326 328 328 327 326 326 326 326 325 325 325 325 326 327 329 329 327 327 327 327 328 327 327 328 328 327 328 328 327 326 326 326 326 326 325 324 324 325 324 325 323 322
329 329 327 326 325 325 324 323 325 325 325 325 327 328 328 329 328 327 326 326 326 326 326 326 326 326 328 327 327 326 325 325 325 326 325 324 324 325 327 324 323 322
325 324 324 323 323 324 323 324 325 325 325 326 328 328 327 327 327 326 326 326 326 325 325 324 325 325 325 325 326 325 325 326 326 326 326 324 325 324 326 325 324 323
323 323 324 324 323 323 324 325 325 325 326 326 327 325 326 326 327 326 325 325 325 324 323 323 324 325 324 324 325 324 323 326 325 325 325 324 324 325 325 326 324 322
323 322 323 323 322 323 324 325 324 326 327 326 326 325 326 326 326 326 325 325 324 323 323 322 323 323 322 323 323 323 322 323 324 323 324 323 322 324 324 323 322 322
321 321 323 323 323 323 324 325 325 326 326 325 325 325 326 325 325 325 325 324 324 323 322 322 322 321 321 322 322 321 321 322 321 321 322 322 321 322 322 323 323 321
322 322 322 322 322 323 324 324 324 324 324 325 325 324 324 324 324 324 323 323 323 322 321 321 320 320 320 319 319 319 319 321 321 320 320 320 320 321 325 323 321 321
322 322 322 321 321 322 323 323 324 324 324 324 325 323 323 323 322 322 323 323 321 319 316 314 314 315 315 314 315 316 316 316 319 319 319 318 318 319 323 322 321 320
321 321 321 320 320 322 323 323 323 324 324 323 322 322 321 319 318 317 316 315 313 312 310 309 308 309 310 311 314 315 315 315 315 315 316 314 316 320 322 321 320 320
320 320 319 321 322 323 323 323 323 322 323 322 320 319 317 316 315 313 312 311 309 308 307 307 306 305 306 307 311 313 314 313 313 314 314 316 319 321 321 320 319 320
320 320 320 321 322 322 321 321 322 322 321 320 317 317 317 314 312 311 308 307 306 305 304 304 303 301 301 302 306 310 311 312 313 314 316 319 319 319 318 318 317 317
320 320 320 320 320 320 319 319 320 319 318 318 317 316 313 312 310 309 307 305 303 302 302 301 300 300 299 297 299 306 309 312 312 313 314 317 319 317 315 316 317 316
319 319 319 318 318 319 318 318 319 319 318 315 314 312 310 309 307 305 304 303 302 300 299 298 297 296 294 292 294 299 308 311 312 312 312 315 317 318 316 316 314 313
319 318 318 318 318 318 319 319 318 316 313 311 310 308 306 305 304 302 301 300 299 297 297 296 295 294 292 293 294 295 303 310 312 313 313 314 315 316 317 316 313 312
319 318 317 317 317 318 318 317 316 313 310 308 306 305 304 302 300 300 298 298 297 296 295 294 294 293 292 293 295 295 299 309 314 313 313 312 312 314 313 312 311 309
318 317 317 317 317 317 316 314 312 310 309 307 305 303 301 300 299 298 297 296 295 294 294 295 295 294 293 294 296 298 302 307 314 313 312 312 313 313 312 311 308 306
313 314 314 315 315 313 312 311 310 308 307 306 304 303 301 299 298 296 296 295 294 294 294 294 295 293 293 295 297 301 303 306 311 309 308 306 306 307 307 305 303 301
307 309 310 311 311 311 310 309 308 307 306 305 303 302 300 299 297 296 294 293 293 293 294 293 294 292 293 295 297 300 304 311 307 304 302 301 301 301 300 300 299 298
304 305 306 306 307 308 307 307 306 306 306 305 302 301 299 298 297 296 295 293 293 293 293 292 292 292 292 294 295 299 304 308 304 301 300 298 297 298 299 299 299 298
304 304 303 304 304 304 304 304 304 305 304 304 302 300 299 297 296 295 295 294 293 293 294 293 293 293 292 293 294 296 302 306 305 302 300 298 297 297 297 297 300 302
304 304 304 303 303 303 304 304 304 303 303 304 303 301 299 297 296 294 294 295 296 297 299 295 295 295 292 292 293 295 300 304 304 302 300 298 298 297 297 297 297 297
304 304 304 304 303 303 304 304 304 303 303 303 302 301 299 297 296 296 295 295 296 297 297 296 295 294 294 292 293 293 296 301 303 303 301 300 300 298 296 296 297 297
Wind_Speed
5 5 5 4 4 4 5 5 5 6 6 6 7 6 7 6 6 7 7 6 6 6 6 5 5 6 6 6 6 6 6 6 6 6 6 6 6 6 6 5 5 6
5 6 5 5 5 4 5 6 5 6 7 6 6 6 6 5 6 6 7 7 6 7 6 6 6 6 6 6 6 7 6 6 6 4 6 6 6 6 6 6 6 4
5 7 7 6 6 6 6 6 7 6 7 7 5 6 6 5 5 6 7 7 8 7 7 6 6 6 7 6 6 6 6 5 6 5 6 6 5 6 5 5 4 5
4 6 7 7 6 6 6 7 7 6 4 6 6 6 6 6 2 3 6 8 8 7 7 6 6 5 6 6 6 5 5 5 5 5 5 4 4 5 5 4 4 4
4 4 4 6 5 6 6 7 8 7 7 7 6 5 6 9 9 7 6 6 7 6 6 6 6 6 6 6 5 6 5 5 4 5 5 5 4 5 4 5 5 5
6 5 4 6 6 6 5 3 6 7 7 6 8 7 6 8 9 7 7 7 6 7 6 6 6 5 6 6 6 6 6 6 5 5 5 5 4 4 4 4 5 5
6 6 6 6 7 8 10 9 7 7 7 8 8 8 9 8 8 8 8 8 7 6 7 6 6 6 5 6 6 6 6 6 6 5 5 5 5 4 4 5 5 5
8 9 9 8 7 7 8 9 8 8 8 7 7 6 2 7 10 8 7 8 7 7 6 6 6 6 5 5 6 6 5 5 6 6 5 5 4 5 4 5 5 5
6 5 5 7 9 9 9 6 5 8 8 10 9 11 8 7 10 9 8 8 7 6 6 6 6 6 5 6 6 6 6 4 5 6 6 5 5 5 5 4 4 4
4 5 8 8 9 8 9 9 11 8 3 6 5 10 11 8 9 8 7 7 7 6 6 6 6 6 6 6 7 7 6 6 5 5 5 6 6 5 5 5 5 5
5 6 6 7 7 7 8 6 6 7 8 8 5 5 8 9 8 7 7 7 6 6 6 5 5 6 6 5 5 5 6 6 6 5 5 6 6 6 7 6 6 6
7 6 8 8 7 5 7 8 8 8 9 8 5 7 7 8 9 7 7 6 5 4 5 5 3 3 3 2 2 3 4 5 6 6 6 5 5 5 6 6 6 6
7 9 6 4 5 6 7 7 8 9 8 5 4 6 8 8 8 8 6 7 7 6 6 6 5 4 4 3 3 3 4 4 4 5 5 4 4 6 6 6 5 5
9 5 6 6 5 6 9 8 7 6 7 7 8 7 9 11 11 10 8 8 7 7 6 5 6 6 4 3 3 4 5 4 4 5 5 4 4 5 6 5 5 5
7 4 6 5 6 6 7 4 7 7 4 5 5 9 10 11 11 11 11 10 7 8 7 5 5 5 4 3 3 4 4 5 4 4 6 7 5 4 4 4 4 4
4 4 7 3 7 8 7 5 4 5 2 7 10 12 12 11 11 10 10 9 9 7 7 6 6 4 5 6 5 2 4 5 5 4 4 6 7 5 3 2 3 3
6 6 7 6 6 8 8 6 9 8 5 7 11 13 13 11 11 11 9 7 8 8 8 6 4 4 7 5 5 4 3 5 6 4 4 5 6 6 6 4 3 4
7 8 7 7 7 7 8 8 9 6 7 9 13 15 12 11 12 10 8 6 7 7 8 5 4 7 7 6 4 5 4 4 4 5 4 6 5 5 5 4 6 5
7 8 7 6 7 7 8 9 8 3 8 11 14 13 11 12 11 10 8 5 6 9 7 5 4 8 8 7 5 5 6 7 6 6 6 3 4 4 5 6 5 5
5 9 9 7 5 9 12 9 5 6 8 9 11 12 12 12 10 10 7 7 7 8 7 6 6 8 8 7 7 8 10 10 7 9 8 8 8 6 6 7 6 5
6 7 8 7 6 7 11 11 6 7 10 10 10 11 11 10 10 10 8 7 7 7 8 8 6 9 8 9 9 12 16 11 9 9 9 9 9 9 9 9 7 6
8 7 8 7 6 9 11 10 6 9 11 9 10 10 9 10 8 8 9 8 6 6 9 8 7 11 10 11 11 13 15 10 9 10 10 10 10 9 9 8 7 6
10 9 8 8 6 8 11 9 9 10 9 8 11 9 10 10 9 8 7 8 8 7 10 8 7 10 11 13 12 12 13 9 10 10 10 11 9 8 8 7 7 7
11 10 9 9 8 9 7 8 8 7 5 6 10 11 11 9 8 9 8 7 9 9 8 9 8 9 12 13 13 12 11 10 9 10 10 9 8 7 6 7 9 13
12 11 10 9 10 8 6 9 9 6 3 6 10 10 10 8 8 10 9 8 8 9 11 11 9 9 13 14 13 11 9 7 9 10 10 7 7 7 6 6 6 8
11 11 11 11 10 9 8 8 8 7 4 8 8 9 9 8 9 10 11 8 7 9 9 8 9 8 11 15 13 13 10 8 6 10 9 7 6 6 6 5 5 6
Wind_Direction
119 115 126 129 138 149 161 184 195 186 189 187 182 182 188 189 177 179 180 172 177 185 191 192 185 171 168 156 159 154 165 167 159 158 166 164 166 165 171 171 174 172
131 126 123 126 129 148 169 153 193 196 188 191 192 177 186 179 187 180 176 175 174 180 179 179 173 169 160 158 160 156 158 156 158 158 159 166 171 171 177 179 177 168
147 142 142 152 162 171 178 167 184 197 188 192 188 183 179 179 183 175 167 164 163 161 161 162 160 161 157 159 159 154 157 162 161 159 159 173 164 174 184 175 167 172
159 156 156 158 167 174 176 173 180 189 187 183 194 187 178 130 172 230 161 155 149 152 152 151 152 154 155 156 150 152 161 172 168 154 159 147 167 170 180 175 166 169
199 169 157 153 156 165 171 188 183 181 187 189 187 188 171 147 160 203 153 149 146 148 151 148 146 152 154 154 154 152 159 167 164 156 157 164 168 164 174 166 166 171
183 155 151 145 152 154 156 214 201 186 186 182 190 186 175 157 161 156 150 149 153 150 151 149 147 155 154 153 152 161 162 164 174 159 162 172 173 174 161 175 167 167
149 118 130 146 155 165 165 203 210 199 188 194 183 175 163 170 152 149 149 151 150 152 152 155 155 163 165 152 153 160 165 167 165 168 169 181 171 179 174 175 178 174
159 157 161 176 171 185 195 200 199 197 193 184 179 114 189 161 147 147 148 149 149 150 150 156 162 162 161 155 159 158 167 164 161 167 176 175 174 176 177 183 174 173
177 161 154 187 187 188 198 197 228 217 191 185 148 162 182 173 142 147 150 148 147 151 148 153 160 161 166 163 164 166 165 171 169 165 168 167 177 181 178 168 166 178
186 179 181 190 193 197 194 186 202 205 159 139 147 170 161 152 143 144 145 146 146 151 151 155 156 158 167 167 166 168 169 171 173 174 174 175 177 173 172 174 172 171
216 191 182 183 189 191 186 173 160 113 104 148 188 213 140 134 138 136 142 146 149 155 155 145 154 163 166 168 169 170 172 172 175 182 187 181 176 176 185 181 178 186
218 196 186 175 163 143 134 125 118 122 151 170 201 194 131 133 137 142 150 148 127 102 91 85 73 89 98 97 127 146 163 162 173 183 187 181 178 174 185 182 182 189
200 210 193 146 124 127 125 128 138 158 169 145 218 174 123 107 100 99 92 99 92 92 86 86 80 77 79 71 80 92 126 135 150 166 172 171 166 175 176 182 176 173
207 198 156 136 133 118 137 146 148 162 168 161 208 119 103 102 103 100 92 88 89 89 81 79 82 71 57 47 62 77 95 95 116 135 143 138 146 154 168 170 162 171
199 178 128 121 126 118 110 125 160 162 136 151 114 100 98 98 101 105 101 91 78 83 76 67 63 55 31 14 55 77 88 94 92 109 134 136 136 139 144 132 141 160
174 101 103 113 126 110 105 100 87 87 164 145 120 106 102 97 94 92 95 100 95 79 74 65 55 49 17 0 339 77 102 102 88 87 122 136 137 131 117 111 131 134
136 125 123 135 119 117 107 106 103 116 163 133 112 102 98 98 95 91 87 89 92 89 76 65 47 22 356 359 359 22 93 98 104 104 122 135 140 146 144 140 107 59
144 127 121 122 119 119 114 109 103 136 157 126 111 102 97 97 92 91 93 92 94 87 76 64 57 12 1 360 12 39 59 93 95 100 117 141 148 149 142 107 84 83
128 123 119 121 126 117 105 104 108 185 119 105 102 102 101 95 97 96 94 94 95 90 75 55 50 8 6 3 15 55 63 75 68 77 79 75 102 92 87 99 102 87
121 125 131 127 127 131 112 96 101 115 94 94 96 96 97 99 97 97 97 87 82 85 79 56 45 2 8 16 29 60 76 79 75 71 65 60 67 75 79 76 69 68
30 89 102 105 107 98 97 104 123 109 95 87 88 95 102 100 104 99 89 84 77 77 77 55 26 2 25 42 54 87 86 83 80 76 70 63 59 63 70 75 75 74
16 50 73 75 90 109 106 105 107 101 99 98 96 93 89 96 87 91 96 90 82 80 79 58 29 14 37 54 67 86 89 85 81 78 77 72 65 62 68 68 70 73
25 28 52 63 67 84 99 104 103 94 100 110 102 97 98 91 93 88 88 93 87 79 81 69 44 18 41 58 59 81 93 94 91 88 81 77 68 61 63 66 65 64
30 30 39 50 54 61 70 85 76 66 75 108 106 109 97 93 96 90 77 75 80 74 74 80 58 30 47 59 62 60 90 102 101 95 88 84 81 66 65 63 55 51
32 30 33 40 47 45 43 81 80 72 87 91 101 96 94 99 95 91 85 72 72 80 71 73 67 44 47 60 62 64 78 95 103 102 94 82 82 73 57 61 54 47
33 31 31 37 34 37 33 57 71 75 49 87 84 93 98 92 88 86 87 81 77 74 67 63 72 60 49 57 61 61 73 91 95 102 102 98 85 84 76 55 47 46